Weather History for Broomfield, CO

Change the Weather History Date:

Monday, December 2, 2013

  Actual Average Record
Temperature  
Mean Temperature 52 °F -  
Max Temperature 59 °F 45 °F 71 °F (1998)
Min Temperature 46 °F 26 °F 1 °F (1985)
Degree Days  
Heating Degree Days 12    
Growing Degree Days 2 (Base 50)    
Moisture  
Dew Point 21 °F    
Average Humidity 29    
Maximum Humidity 35    
Minimum Humidity 20    
Precipitation  
Precipitation 0.00 in - - ()
Sea Level Pressure  
Sea Level Pressure 29.73 in    
Wind  
Wind Speed 20 mph (WNW)    
Max Wind Speed 31 mph    
Max Gust Speed 47 mph    
Visibility 12 miles    
Events      
Averages and records for this station are not official NWS values.
T = Trace of Precipitation, MM = Missing Value Source: NWS Daily Summary

Daily Weather History Graph

Daily Weather History Graph

Search for Another Location

Airport:

Trip Planner

Search our weather history database for the weather conditions in past years. The results will help you decide how hot, cold, wet, or windy it might be!

Date:

Astronomy

Dec. 02, 2013 Rise Set
Actual Time 7:04 AM MST 4:35 PM MST
Civil Twilight 6:34 AM MST 5:05 PM MST
Nautical Twilight 6:00 AM MST 5:39 PM MST
Astronomical Twilight 5:27 AM MST 6:12 PM MST
Moon 6:32 AM MST (12/2) 4:41 PM MST (12/2)
Length of Visible Light 10h 31m
Length of Day
9h 31m
Waning Crescent, 0% of the Moon is Illuminated
Dec 2
Waning Crescent
Dec 2
New
Dec 9
First Quarter
Dec 17
Full
Dec 25
Last Quarter

Hourly Weather History & Observations

Time (MST) Temp. Windchill Dew Point Humidity Pressure Visibility Wind Dir Wind Speed Gust Speed Precip Events Conditions
12:15 AM 50.0 °F - 23.0 °F 35% 29.86 in 10.0 mi West 29.9 mph 47.2 mph N/A   Clear
12:35 AM 51.8 °F - 23.0 °F 33% 29.87 in 10.0 mi West 29.9 mph 44.9 mph N/A   Clear
12:55 AM 51.8 °F - 21.2 °F 30% 29.87 in 10.0 mi West 17.3 mph 34.5 mph N/A   Clear
1:15 AM 50.0 °F - 21.2 °F 32% 29.88 in 10.0 mi West 19.6 mph 23.0 mph N/A   Clear
1:35 AM 51.8 °F - 21.2 °F 30% 29.87 in 10.0 mi West 27.6 mph 40.3 mph N/A   Clear
1:55 AM 51.8 °F - 21.2 °F 30% 29.88 in 10.0 mi WNW 23.0 mph 35.7 mph N/A   Clear
2:15 AM 51.8 °F - 21.2 °F 30% 29.86 in 10.0 mi West 31.1 mph 40.3 mph N/A   Clear
2:35 AM 50.0 °F - 21.2 °F 32% 29.87 in 10.0 mi West 24.2 mph 31.1 mph N/A   Clear
2:55 AM 51.8 °F - 21.2 °F 30% 29.86 in 10.0 mi West 25.3 mph 38.0 mph N/A   Clear
3:15 AM 51.8 °F - 21.2 °F 30% 29.84 in 10.0 mi WNW 24.2 mph 35.7 mph N/A   Clear
3:35 AM 51.8 °F - 21.2 °F 30% 29.83 in 10.0 mi NW 26.5 mph 33.4 mph N/A   Clear
3:54 AM 50.0 °F - 23.0 °F 35% 29.81 in 10.0 mi WNW 20.7 mph 28.8 mph N/A   Clear
4:15 AM 51.8 °F - 21.2 °F 30% 29.80 in 10.0 mi NW 11.5 mph 29.9 mph N/A   Clear
4:35 AM 50.0 °F - 23.0 °F 35% 29.80 in 10.0 mi NNW 11.5 mph - N/A   Clear
4:54 AM 50.0 °F - 23.0 °F 35% 29.80 in 10.0 mi NNW 9.2 mph - N/A   Clear
5:52 AM 48.2 °F - 21.2 °F 34% 29.77 in 50.0 mi WNW 9.2 mph - N/A   Scattered Clouds
6:51 AM 51.8 °F - 19.4 °F 28% 29.77 in 50.0 mi NNW 13.8 mph 32.2 mph N/A   Mostly Cloudy
7:46 AM 53.6 °F - 21.2 °F 28% 29.75 in 50.0 mi WNW 19.6 mph 38.0 mph N/A   Mostly Cloudy
8:48 AM 55.4 °F - 19.4 °F 25% 29.74 in 50.0 mi NW 6.9 mph 41.4 mph N/A   Mostly Cloudy
9:47 AM 57.2 °F - 19.4 °F 23% 29.74 in 50.0 mi NNW 11.5 mph 23.0 mph N/A   Mostly Cloudy
10:06 AM 57.2 °F - 19.4 °F 23% 29.73 in 50.0 mi WNW 18.4 mph 38.0 mph N/A   Mostly Cloudy
10:47 AM 57.2 °F - 19.4 °F 23% 29.73 in 50.0 mi WNW 17.3 mph 29.9 mph N/A   Mostly Cloudy
11:45 AM 55.4 °F - 19.4 °F 25% 29.68 in 70.0 mi WNW 6.9 mph 31.1 mph N/A   Mostly Cloudy
12:46 PM 59.0 °F - 19.4 °F 22% 29.67 in 70.0 mi West 21.9 mph 32.2 mph N/A   Mostly Cloudy
1:53 PM 59.0 °F - 19.4 °F 22% 29.65 in 70.0 mi NW 20.7 mph 41.4 mph N/A   Mostly Cloudy
2:47 PM 59.0 °F - 17.6 °F 20% 29.63 in 70.0 mi WNW 18.4 mph 29.9 mph N/A   Mostly Cloudy
3:53 PM 55.4 °F - 17.6 °F 23% 29.64 in 70.0 mi West 5.8 mph - N/A   Overcast
5:45 PM 53.6 °F - 17.6 °F 24% 29.62 in 20.0 mi NNW 3.5 mph - N/A   Overcast
6:49 PM 50.0 °F - 19.4 °F 30% 29.62 in 20.0 mi NNE 8.1 mph - N/A   Scattered Clouds
7:53 PM 48.2 °F - 19.4 °F 32% 29.60 in 20.0 mi East 5.8 mph - N/A   Scattered Clouds
8:47 PM 48.2 °F - 19.4 °F 32% 29.61 in 20.0 mi NE 8.1 mph - N/A   Partly Cloudy
9:45 PM 46.4 °F 43.5 °F 19.4 °F 34% 29.59 in 20.0 mi ENE 5.8 mph - N/A   Partly Cloudy
10:14 PM 48.2 °F - 21.2 °F 34% 29.59 in 10.0 mi NNW 10.4 mph - N/A   Clear
10:35 PM 48.2 °F - 19.4 °F 32% 29.59 in 10.0 mi NW 3.5 mph - N/A   Clear
10:54 PM 50.0 °F - 21.2 °F 32% 29.59 in 10.0 mi NW 15.0 mph - N/A   Clear
11:15 PM 50.0 °F - 21.2 °F 32% 29.59 in 10.0 mi West 9.2 mph 12.7 mph N/A   Clear
11:35 PM 50.0 °F - 21.2 °F 32% 29.58 in 10.0 mi WNW 16.1 mph 23.0 mph N/A   Clear
11:55 PM 50.0 °F - 21.2 °F 32% 29.56 in 10.0 mi NW 17.3 mph 27.6 mph N/A   Clear